Weather History for KBIL - April, 2013

Change the Weather History Date:

Tuesday, April 9, 2013

  Actual Average Record
Temperature  
Mean Temperature 23 °F 44 °F  
Max Temperature 28 °F 55 °F 82 °F (1996)
Min Temperature 17 °F 33 °F 16 °F (1973)
Degree Days  
Heating Degree Days 42 21  
Month to date heating degree days 198 197  
Since 1 July heating degree days 5601 6007  
Cooling Degree Days 0 0  
Month to date cooling degree days 0 0  
Year to date cooling degree days 0 0  
Moisture  
Dew Point 14 °F    
Average Humidity 71    
Maximum Humidity 92    
Minimum Humidity 50    
Precipitation  
Precipitation T in 0.05 in 0.36 in (1940)
Month to date precipitation 0.60 0.44  
Year to date precipitation 1.74 2.46  
Snow  
Snow 0.10 in 0.30 in 4.50 in (1935)
Month to date snowfall 3.1 3.0  
Since 1 July snowfall 37.9 47.7  
Snow Depth 2.00 in    
Sea Level Pressure  
Sea Level Pressure 30.46 in    
Wind  
Wind Speed 5 mph (NE)    
Max Wind Speed 9 mph    
Max Gust Speed 13 mph    
Visibility 9 miles    
Events Snow    
T = Trace of Precipitation, MM = Missing Value Source: NWS Daily Summary

Daily Weather History Graph

Daily Weather History Graph

Search for Another Location

Airport or City:

Trip Planner

Search our weather history database for the weather conditions in past years. The results will help you decide how hot, cold, wet, or windy it might be!

Date:

Astronomy

Apr. 09, 2013 Rise Set
Actual Time 6:38 AM MDT 7:53 PM MDT
Civil Twilight 6:07 AM MDT 8:24 PM MDT
Nautical Twilight 5:31 AM MDT 9:01 PM MDT
Astronomical Twilight 4:51 AM MDT 9:40 PM MDT
Moon 6:04 AM MDT (4/9) 7:32 PM MDT (4/9)
Length of Visible Light 14h 16m
Length of Day
13h 14m
Waning Crescent, 0% of the Moon is Illuminated
Apr 9
Waning Crescent
Apr 10
New
Apr 18
First Quarter
Apr 25
Full
May 2
Last Quarter

Hourly Weather History & Observations

Time (MDT) Temp. Windchill Dew Point Humidity Pressure Visibility Wind Dir Wind Speed Gust Speed Precip Events Conditions
12:53 AM 19.0 °F 12.3 °F 16.0 °F 88% 30.44 in 2.0 mi NNE 4.6 mph - 0.00 in Snow Light Snow
1:53 AM 19.0 °F 13.9 °F 16.0 °F 88% 30.47 in 2.0 mi NE 3.5 mph - 0.00 in Snow Light Snow
2:03 AM 19.0 °F 13.9 °F 17.1 °F 92% 30.32 in 7.0 mi NE 3.5 mph - 0.00 in Snow Light Snow
2:10 AM 19.0 °F 12.3 °F 16.0 °F 88% 30.32 in 7.0 mi NE 4.6 mph - 0.00 in Snow Light Snow
2:25 AM 19.0 °F 12.3 °F 16.0 °F 88% 30.33 in 8.0 mi ENE 4.6 mph - 0.00 in Snow Light Snow
2:53 AM 19.0 °F 9.0 °F 16.0 °F 88% 30.48 in 9.0 mi NE 8.1 mph - 0.00 in Snow Light Snow
3:00 AM 19.0 °F 9.0 °F 16.0 °F 88% 30.32 in 9.0 mi NE 8.1 mph - 0.00 in Snow Light Snow
3:53 AM 18.0 °F 8.7 °F 16.0 °F 92% 30.48 in 9.0 mi NE 6.9 mph - 0.00 in Snow Light Snow
4:34 AM 18.0 °F 8.7 °F 15.1 °F 88% 30.32 in 10.0 mi ENE 6.9 mph - 0.00 in   Overcast
4:53 AM 18.0 °F 8.7 °F 14.0 °F 84% 30.48 in 10.0 mi NE 6.9 mph - 0.00 in   Overcast
5:10 AM 17.1 °F 8.7 °F 14.0 °F 88% 30.33 in 10.0 mi NE 5.8 mph - N/A   Overcast
5:53 AM 17.1 °F 10.0 °F 14.0 °F 88% 30.52 in 10.0 mi ENE 4.6 mph - N/A   Overcast
6:53 AM 17.1 °F 11.7 °F 12.9 °F 84% 30.54 in 10.0 mi NNE 3.5 mph - N/A   Overcast
7:53 AM 17.1 °F 8.7 °F 12.9 °F 84% 30.54 in 10.0 mi NNE 5.8 mph - 0.00 in Snow Light Snow
8:53 AM 18.0 °F 11.1 °F 12.9 °F 81% 30.55 in 10.0 mi NNE 4.6 mph - 0.00 in   Overcast
9:53 AM 19.9 °F 14.9 °F 14.0 °F 78% 30.56 in 10.0 mi Variable 3.5 mph - N/A   Mostly Cloudy
10:53 AM 21.9 °F - 14.0 °F 72% 30.56 in 10.0 mi Calm Calm - N/A   Mostly Cloudy
11:53 AM 23.0 °F - 12.9 °F 65% 30.56 in 10.0 mi Calm Calm - 0.00 in   Mostly Cloudy
12:53 PM 23.0 °F 13.9 °F 10.9 °F 60% 30.53 in 10.0 mi North 8.1 mph - N/A   Overcast
1:53 PM 23.0 °F 17.0 °F 12.0 °F 63% 30.51 in 10.0 mi ENE 4.6 mph - N/A   Scattered Clouds
2:53 PM 26.1 °F 19.4 °F 10.0 °F 51% 30.49 in 10.0 mi North 5.8 mph - N/A   Scattered Clouds
3:53 PM 26.1 °F 21.9 °F 14.0 °F 60% 30.48 in 10.0 mi Variable 3.5 mph - N/A   Mostly Cloudy
4:53 PM 27.0 °F 20.5 °F 15.1 °F 61% 30.47 in 10.0 mi NE 5.8 mph - N/A   Mostly Cloudy
5:32 PM 27.0 °F 21.6 °F 15.1 °F 61% 30.33 in 10.0 mi North 4.6 mph - N/A   Mostly Cloudy
5:53 PM 27.0 °F 21.6 °F 15.1 °F 61% 30.48 in 10.0 mi NE 4.6 mph - N/A   Mostly Cloudy
6:53 PM 27.0 °F 21.6 °F 14.0 °F 58% 30.47 in 10.0 mi NNE 4.6 mph - N/A   Scattered Clouds
7:53 PM 26.1 °F 19.4 °F 16.0 °F 66% 30.46 in 10.0 mi East 5.8 mph - N/A   Scattered Clouds
8:53 PM 25.0 °F 17.1 °F 16.0 °F 69% 30.46 in 10.0 mi ESE 6.9 mph - N/A   Partly Cloudy
9:53 PM 24.1 °F 18.2 °F 15.1 °F 69% 30.45 in 10.0 mi South 4.6 mph - N/A   Partly Cloudy
10:53 PM 23.0 °F 17.0 °F 15.1 °F 72% 30.44 in 10.0 mi SSW 4.6 mph - N/A   Clear
11:53 PM 21.9 °F 15.7 °F 15.1 °F 75% 30.42 in 10.0 mi SSW 4.6 mph - N/A   Clear